| time (UTC) | temp F | wind direction | speed knots | gust knots | rain 1hr in | rain 24hr in | rain mn in | humidity % | barometer mb |
| 20260906183004 | 80 | 60 | 0.9 | 2.6 | 0.00 | 0.00 | 0.00 | 70 | 1012.4 |
| 20260906181505 | 81 | 68 | 0.0 | 3.5 | 0.00 | 0.00 | 0.00 | 70 | 1012.4 |
| 20260906180004 | 81 | 68 | 0.0 | 0.9 | 0.00 | 0.00 | 0.00 | 75 | 1012.4 |
| 20260906174504 | 81 | 69 | 0.0 | 1.7 | 0.00 | 0.00 | 0.00 | 74 | 1012.3 |
| 20260906173003 | 82 | 132 | 0.0 | 0.9 | 0.00 | 0.00 | 0.00 | 74 | 1012.4 |
| 20260906171505 | 81 | 95 | 0.0 | 0.9 | 0.00 | 0.00 | 0.00 | 77 | 1012.6 |
| 20260906170005 | 80 | 88 | 0.0 | 0.9 | 0.00 | 0.00 | 0.00 | 78 | 1012.6 |
| 20260906164504 | 80 | 0 | 0.0 | 0.0 | 0.00 | 0.00 | 0.00 | 80 | 1012.7 |
| 20260906163025 | 79 | 111 | 0.0 | 0.9 | 0.00 | 0.00 | 0.00 | 79 | 1012.9 |
| 20260906161504 | 79 | 112 | 0.0 | 0.9 | 0.00 | 0.00 | 0.00 | 80 | 1012.9 |
| 20260906160004 | 78 | 79 | 0.0 | 0.9 | 0.00 | 0.00 | 0.00 | 82 | 1013.0 |
| 20260906154505 | 77 | 76 | 0.0 | 0.9 | 0.00 | 0.00 | 0.00 | 83 | 1013.2 |
| 20260906153025 | 77 | 128 | 0.0 | 0.9 | 0.00 | 0.00 | 0.00 | 84 | 1013.1 |
| 20260906151504 | 76 | 0 | 0.0 | 0.0 | 0.00 | 0.00 | 0.00 | 85 | 1013.0 |
| 20260906150004 | 76 | 0 | 0.0 | 0.0 | 0.00 | 0.00 | 0.00 | 86 | 1012.8 |
| 20260906144504 | 76 | 88 | 0.0 | 0.9 | 0.00 | 0.00 | 0.00 | 86 | 1012.8 |
| 20260906143004 | 76 | 0 | 0.0 | 0.0 | 0.00 | 0.00 | 0.00 | 85 | 1012.7 |
| 20260906141503 | 76 | 0 | 0.0 | 0.0 | 0.00 | 0.00 | 0.00 | 86 | 1012.7 |
| 20260906140004 | 76 | 88 | 0.0 | 0.9 | 0.00 | 0.00 | 0.00 | 84 | 1012.7 |
| 20260906134503 | 76 | 79 | 0.0 | 0.9 | 0.00 | 0.00 | 0.00 | 84 | 1012.5 |
| 20260906133004 | 76 | 74 | 0.0 | 0.9 | 0.00 | 0.00 | 0.00 | 85 | 1012.2 |
| 20260906131525 | 77 | 65 | 0.0 | 1.7 | 0.00 | 0.00 | 0.00 | 86 | 1011.8 |
| 20260906130004 | 76 | 69 | 0.0 | 0.9 | 0.00 | 0.00 | 0.00 | 87 | 1011.6 |
| 20260906124504 | 76 | 65 | 0.0 | 0.9 | 0.00 | 0.00 | 0.00 | 88 | 1011.7 |
| 20260906123004 | 76 | 71 | 0.0 | 0.9 | 0.00 | 0.00 | 0.00 | 89 | 1011.5 |
| 20260906121504 | 75 | 68 | 0.0 | 0.9 | 0.00 | 0.00 | 0.00 | 89 | 1011.3 |
| 20260906120004 | 75 | 70 | 0.0 | 1.7 | 0.00 | 0.00 | 0.00 | 90 | 1011.0 |
| 20260906114525 | 74 | 74 | 0.0 | 0.9 | 0.00 | 0.00 | 0.00 | 93 | 1010.9 |
| 20260906113003 | 74 | 65 | 0.0 | 0.9 | 0.00 | 0.00 | 0.00 | 95 | 1010.9 |
| 20260906111504 | 74 | 71 | 0.0 | 0.9 | 0.00 | 0.00 | 0.00 | 96 | 1010.8 |
| 20260906110004 | 74 | 0 | 0.0 | 0.0 | 0.00 | 0.00 | 0.00 | 97 | 1010.7 |
| 20260906104503 | 73 | 0 | 0.0 | 0.0 | 0.00 | 0.00 | 0.00 | 97 | 1010.6 |
| 20260906103003 | 73 | 0 | 0.0 | 0.0 | 0.00 | 0.00 | 0.00 | 97 | 1010.4 |
| 20260906101504 | 73 | 0 | 0.0 | 0.0 | 0.00 | 0.00 | 0.00 | 97 | 1010.2 |
| 20260906100024 | 73 | 0 | 0.0 | 0.0 | 0.00 | 0.00 | 0.00 | 97 | 1010.1 |
| 20260906094504 | 73 | 0 | 0.0 | 0.0 | 0.00 | 0.00 | 0.00 | 97 | 1009.9 |
| 20260906093003 | 72 | 0 | 0.0 | 0.0 | 0.00 | 0.00 | 0.00 | 97 | 1009.9 |
| 20260906091504 | 72 | 0 | 0.0 | 0.0 | 0.00 | 0.00 | 0.00 | 97 | 1009.7 |
| 20260906090025 | 72 | 0 | 0.0 | 0.0 | 0.00 | 0.00 | 0.00 | 97 | 1009.7 |
| 20260906084503 | 72 | 0 | 0.0 | 0.0 | 0.00 | 0.00 | 0.00 | 96 | 1009.5 |
| 20260906083003 | 72 | 0 | 0.0 | 0.0 | 0.00 | 0.00 | 0.00 | 96 | 1009.5 |
| 20260906081503 | 72 | 0 | 0.0 | 0.0 | 0.00 | 0.00 | 0.00 | 96 | 1009.3 |
| 20260906080004 | 72 | 0 | 0.0 | 0.0 | 0.00 | 0.00 | 0.00 | 95 | 1009.2 |
| 20260906074505 | 72 | 0 | 0.0 | 0.0 | 0.00 | 0.00 | 0.00 | 95 | 1009.2 |
| 20260906073005 | 72 | 0 | 0.0 | 0.0 | 0.00 | 0.00 | 0.00 | 95 | 1009.1 |
| 20260906071506 | 72 | 0 | 0.0 | 0.0 | 0.00 | 0.00 | 0.00 | 95 | 1009.2 |
| 20260906070005 | 72 | 0 | 0.0 | 0.0 | 0.00 | 0.00 | 0.00 | 95 | 1009.2 |
| 20260906064506 | 73 | 0 | 0.0 | 0.0 | 0.00 | 0.00 | 0.00 | 94 | 1009.2 |
| 20260906063026 | 73 | 0 | 0.0 | 0.0 | 0.00 | 0.00 | 0.00 | 94 | 1009.2 |
| 20260906061505 | 73 | 0 | 0.0 | 0.0 | 0.00 | 0.00 | 0.00 | 94 | 1009.4 |
| 20260906060005 | 73 | 0 | 0.0 | 0.0 | 0.00 | 0.00 | 0.00 | 93 | 1009.6 |
| 20260906054505 | 74 | 0 | 0.0 | 0.0 | 0.00 | 0.00 | 0.00 | 94 | 1009.8 |
| 20260906053005 | 74 | 0 | 0.0 | 0.0 | 0.00 | 0.00 | 0.00 | 94 | 1009.6 |
| 20260906051506 | 73 | 0 | 0.0 | 0.0 | 0.00 | 0.00 | 0.00 | 94 | 1009.5 |
| 20260906050005 | 74 | 0 | 0.0 | 0.0 | 0.00 | 0.00 | 0.00 | 95 | 1009.8 |
| 20260906044505 | 74 | 0 | 0.0 | 0.0 | 0.00 | 0.00 | 0.00 | 95 | 1009.8 |
| 20260906043005 | 74 | 0 | 0.0 | 0.0 | 0.00 | 0.00 | 0.00 | 95 | 1010.0 |
| 20260906041505 | 74 | 0 | 0.0 | 0.0 | 0.00 | 0.00 | 0.00 | 94 | 1010.1 |
| 20260906040007 | 74 | 0 | 0.0 | 0.0 | 0.00 | 0.00 | 0.00 | 94 | 1010.1 |
| 20260906034505 | 74 | 0 | 0.0 | 0.0 | 0.00 | 0.00 | 0.00 | 94 | 1010.1 |
| 20260906033005 | 75 | 0 | 0.0 | 0.0 | 0.00 | 0.00 | 0.00 | 93 | 1010.3 |
| 20260906031526 | 75 | 0 | 0.0 | 0.0 | 0.00 | 0.00 | 0.00 | 93 | 1010.4 |
| 20260906030005 | 76 | 0 | 0.0 | 0.0 | 0.00 | 0.00 | 0.00 | 92 | 1010.3 |
| 20260906024505 | 76 | 0 | 0.0 | 0.0 | 0.00 | 0.00 | 0.00 | 91 | 1010.4 |
| 20260906023005 | 76 | 0 | 0.0 | 0.0 | 0.00 | 0.00 | 0.00 | 90 | 1010.5 |
| 20260906021505 | 77 | 0 | 0.0 | 0.0 | 0.00 | 0.00 | 0.00 | 89 | 1010.4 |
| 20260906020025 | 78 | 0 | 0.0 | 0.0 | 0.00 | 0.01 | 0.00 | 88 | 1010.6 |
| 20260906014505 | 78 | 221 | 0.0 | 0.9 | 0.00 | 0.03 | 0.00 | 88 | 1010.8 |
| 20260906013005 | 78 | 0 | 0.0 | 0.0 | 0.00 | 0.07 | 0.00 | 88 | 1010.3 |
| 20260906011505 | 78 | 0 | 0.0 | 0.0 | 0.00 | 0.09 | 0.00 | 87 | 1010.2 |
| 20260906010005 | 79 | 0 | 0.0 | 0.0 | 0.00 | 0.10 | 0.00 | 86 | 1010.0 |
| 20260906004505 | 79 | 154 | 0.0 | 1.7 | 0.00 | 0.11 | 0.00 | 85 | 1010.0 |
| 20260906003025 | 79 | 296 | 0.0 | 0.9 | 0.00 | 0.13 | 0.00 | 85 | 1009.8 |
| 20260906001504 | 80 | 62 | 0.0 | 0.9 | 0.00 | 0.14 | 0.00 | 84 | 1009.2 |
| 20260906000025 | 80 | 56 | 0.0 | 0.9 | 0.00 | 0.17 | 0.00 | 84 | 1008.9 |
| 20260905234526 | 80 | 65 | 0.0 | 0.9 | 0.00 | 0.21 | 0.00 | 83 | 1008.5 |
| 20260905233005 | 81 | 69 | 0.0 | 1.7 | 0.00 | 0.22 | 0.00 | 83 | 1008.6 |
| 20260905231504 | 81 | 61 | 0.0 | 2.6 | 0.00 | 0.22 | 0.00 | 83 | 1008.8 |
| 20260905230005 | 82 | 82 | 0.0 | 0.9 | 0.00 | 0.22 | 0.00 | 81 | 1009.1 |
| 20260905224504 | 82 | 82 | 0.0 | 0.9 | 0.00 | 0.22 | 0.00 | 80 | 1009.2 |
| 20260905223004 | 82 | 76 | 0.0 | 0.9 | 0.00 | 0.22 | 0.00 | 80 | 1008.9 |
| 20260905221504 | 83 | 72 | 0.0 | 0.9 | 0.00 | 0.22 | 0.00 | 78 | 1008.4 |
| 20260905220004 | 83 | 65 | 0.0 | 2.6 | 0.00 | 0.22 | 0.00 | 78 | 1008.1 |
| 20260905214504 | 84 | 63 | 0.0 | 2.6 | 0.00 | 0.22 | 0.00 | 78 | 1008.3 |
| 20260905213026 | 84 | 62 | 0.0 | 2.6 | 0.00 | 0.22 | 0.00 | 77 | 1008.3 |
| 20260905211504 | 85 | 49 | 0.0 | 1.7 | 0.00 | 0.22 | 0.00 | 78 | 1008.2 |
| 20260905210005 | 86 | 52 | 0.0 | 0.9 | 0.00 | 0.22 | 0.00 | 78 | 1007.8 |
| 20260905204505 | 88 | 318 | 0.0 | 2.6 | 0.00 | 0.22 | 0.00 | 75 | 1007.9 |
| 20260905203004 | 89 | 326 | 0.0 | 0.9 | 0.00 | 0.22 | 0.00 | 73 | 1007.9 |
| 20260905201505 | 90 | 84 | 0.0 | 0.9 | 0.00 | 0.23 | 0.00 | 70 | 1008.1 |
| 20260905200004 | 90 | 84 | 0.0 | 0.9 | 0.00 | 0.23 | 0.00 | 66 | 1008.1 |
| 20260905194504 | 89 | 71 | 0.0 | 1.7 | 0.00 | 0.23 | 0.00 | 68 | 1008.4 |
| 20260905193026 | 89 | 65 | 0.0 | 1.7 | 0.00 | 0.23 | 0.00 | 69 | 1008.7 |
| 20260905191504 | 88 | 62 | 0.0 | 0.9 | 0.00 | 0.23 | 0.00 | 72 | 1008.8 |
| 20260905190004 | 89 | 67 | 0.0 | 3.5 | 0.00 | 0.23 | 0.00 | 70 | 1009.0 |
| 20260905184504 | 90 | 84 | 0.0 | 0.9 | 0.00 | 0.23 | 0.00 | 71 | 1009.1 |